Forside
METAR-TAF:

METAR-TAF

Lufthavne :

L.O. Simenstad Municipal Airport

Osceola, Wisconsin, USA

Breddekreds: 45-18-31N, længdekreds: 092-41-24W, højde: 275 m

Aktuelle vejr

Denne rapport blev lavet for 1 time og 21 minutter siden, kl. 00:15 UTC
Vind 9 kt fra vestnordvest
Temperatur 18°C
Fugtighed 37%
Tryk 1014 hPa
Sigt: 16.1 km
Overskyet i en højde af 8500 ft

METAR: KOEO 220015Z AUTO 30009KT 10SM OVC085 18/03 A2995 RMK AO2 T01770029

Tid: 20:36 (01:36 UTC)


TAF: fraværende

Vejrobservationer og prognoser fra mere end 4000 lufthavne (METAR og TAF).

De gule og røde prikker repræsenterer de meteorologiske stationer.

Flyt musen over at se navnet på stationen.

Så klik over at se vejr observationer og prognoser.

At skifte det kort: Klik på de grønne knapper med et sort kors for at zoome ind; på den grønne knap med en bindestreg for at zoome ud; eller på de grønne pile for tilstødende kort.


METAR-TAF: